SBIRS GEO-3 (USA 273)

Last updated on Sun Oct 27 2019 04:21:40 GMT+0000 (Coordinated Universal Time)

1 41937U 17004A 19299.14185230 .00000109 00000-0 00000+0 0 9999 2 41937 4.2664 312.0273 0002313 253.5668 80.3501 1.00272113 10274
UTC large
Height (km)
Speed (km/s)
/
Latitude / Longitude
Inclination (degrees)
Orbital Period (minutes)
Azimuth
Elevation
Range (km)
Doppler Factor

Next 0 passes for location: London (51.5072 / 0.1276)

Sorry there are no passes over London.